Home   Weather   Belfast   Past weeks
Flag for United Kingdom

Past Weather in Belfast, Northern Ireland, United Kingdom — Yesterday and Last 2 Weeks

Now
54 °F

Cool.


Feels Like: 52 °F
Forecast: 54 / 45 °F
Wind: 6 mph from South

Location: Belfast / Harbour

Current Time: Oct 15, 2019 at 10:45:17 pm

Latest Report: Oct 15, 2019 at 9:50 pm


Visibility: N/A

Pressure: 29.45 "Hg

Humidity: 88%

Dew Point: 50 °F

Location of BelfastLocation

Past Weather in Belfast — Graph

°F

Belfast Temperature Yesterday

Maximum temperature yesterday: 57 °F (at 2:50 pm)
Minimum temperature yesterday: 39 °F (at 2:50 am)
Average temperature yesterday: 49 °F

High & Low Weather Summary for the Past Weeks

 TemperatureHumidityPressure
High61 °F (Oct 7, 1:50 pm)100% (Oct 1, 1:50 am)30.18 "Hg (Oct 1, 1:50 am)
Low37 °F (Oct 3, 4:20 am)51% (Oct 2, 4:20 pm)29.39 "Hg (Oct 4, 5:50 am)
Average51 °F86%29.65 "Hg
* Reported Sep 30 9:20 pm — Oct 15 9:20 pm, Belfast. Weather by CustomWeather, © 2019

Note: Actual official high and low records may vary slightly from our data, if they occured in-between our weather recording intervals... More about our weather records

Advertising

Belfast Weather History for the Previous 24 Hours

Scroll right to see more
 ConditionsComfort  
Time TempWeatherWind HumidityBarometerVisibility
9:20 pm
Tue, Oct 15
54 °FCool.6 mph88%29.45 "HgN/A
8:50 pm52 °FCool.6 mph94%29.45 "HgN/A
8:20 pm54 °FCool.5 mph88%29.45 "HgN/A
7:50 pm54 °FCool.7 mph88%29.47 "HgN/A
7:20 pm54 °FPassing clouds.7 mph94%29.47 "HgN/A
6:50 pm55 °FPassing clouds.9 mph88%29.47 "HgN/A
6:20 pm55 °FBroken clouds.12 mph88%29.47 "HgN/A
5:50 pm54 °FLight rain. Mostly cloudy.8 mph94%29.47 "HgN/A
5:20 pm54 °FLight rain. Broken clouds.9 mph94%29.47 "HgN/A
4:50 pm54 °FDrizzle. Broken clouds.9 mph94%29.47 "HgN/A
4:20 pm55 °FCloudy.9 mph88%29.50 "HgN/A
3:50 pm55 °FPartly sunny.9 mph82%29.50 "HgN/A
3:20 pm55 °FPartly sunny.8 mph82%29.50 "HgN/A
2:50 pm55 °FOvercast.8 mph82%29.50 "HgN/A
2:20 pm55 °FCloudy.12 mph82%29.53 "HgN/A
1:50 pm55 °FMostly cloudy.9 mph82%29.53 "HgN/A
1:20 pm55 °FOvercast.9 mph82%29.53 "HgN/A
12:50 pm55 °FBroken clouds.8 mph82%29.53 "HgN/A
12:20 pm55 °FScattered clouds.10 mph82%29.53 "HgN/A
11:50 am55 °FScattered clouds.7 mph88%29.53 "HgN/A
11:20 am55 °FScattered clouds.8 mph82%29.56 "HgN/A
10:50 am55 °FScattered clouds.6 mph82%29.56 "HgN/A
10:20 am54 °FScattered clouds.6 mph88%29.56 "HgN/A
9:50 am52 °FCool.3 mph94%29.56 "HgN/A
9:20 am52 °FCool.1 mph94%29.56 "HgN/A
8:50 am50 °FScattered clouds.2 mph100%29.56 "HgN/A
8:20 am48 °FPartly sunny.3 mph100%29.56 "HgN/A
7:50 am48 °FPassing clouds.1 mph100%29.56 "HgN/A
7:20 am50 °FPassing clouds.3 mph100%29.59 "Hg6 mi
6:50 am48 °FPartly cloudy.6 mph100%29.59 "HgN/A
6:20 am46 °FMostly cloudy.5 mph100%29.59 "HgN/A
5:50 am45 °FFog.No wind100%29.59 "Hg3 mi
5:20 am46 °FFog.No wind100%29.59 "Hg2 mi
4:50 am45 °FLight rain. Fog.2 mph100%29.59 "Hg1 mi
4:20 am43 °FFog.2 mph100%29.59 "Hg1 mi
3:50 am43 °FFog.No wind100%29.59 "Hg0 mi
3:20 am45 °FFog.No wind100%29.59 "Hg0 mi
2:50 am46 °FFog.1 mph100%29.59 "Hg1 mi
2:20 am48 °FFog.5 mph100%29.62 "Hg1 mi
1:50 am46 °FFog.5 mph100%29.62 "Hg0 mi
1:20 am46 °FFog.5 mph100%29.62 "Hg0 mi
12:50 am48 °FFog.1 mph100%29.62 "Hg0 mi
12:20 am48 °FFog.1 mph100%29.62 "Hg1 mi
11:50 pm
Mon, Oct 14
50 °FFog.2 mph94%29.62 "Hg3 mi
11:20 pm50 °FFog.3 mph100%29.62 "Hg3 mi
10:50 pm52 °FPassing clouds.3 mph94%29.62 "Hg5 mi
10:20 pm52 °FPassing clouds.3 mph94%29.65 "HgN/A
Weather by CustomWeather, © 2019

See weather overview